Concordia, KS

1:55 PM CDT on June 28, 2017 (GMT -0500)
Blosser Municipal

Weather History for KCNK - May, 2013

Change the Weather History Date:

Tuesday, May 28, 2013

  Actual Average Record
Temperature  
Mean Temperature 75 °F 67 °F  
Max Temperature 85 °F 78 °F 96 °F (1921)
Min Temperature 64 °F 56 °F 37 °F (1992)
Degree Days  
Heating Degree Days 0 2  
Month to date heating degree days 152 125  
Since 1 July heating degree days 5499 5389  
Cooling Degree Days 10 4  
Month to date cooling degree days 79 58  
Year to date cooling degree days 89 75  
Growing Degree Days 24 (Base 50)    
Moisture  
Dew Point 65 °F    
Average Humidity 77    
Maximum Humidity 93    
Minimum Humidity 61    
Precipitation  
Precipitation 0.00 in 0.14 in 3.46 in (1962)
Month to date precipitation 4.96 3.73  
Year to date precipitation 10.81 9.56  
Snow  
Snow 0.00 in 0.00 in T in (1927)
Month to date snowfall T 0.0  
Year to date snowfall 20.3 13.7  
Since 1 July snowfall 28.8 20.2  
Snow Depth 0.00 in    
Sea Level Pressure  
Sea Level Pressure 29.61 in    
Wind  
Wind Speed 10 mph (ESE)    
Max Wind Speed 48 mph    
Max Gust Speed 59 mph    
Visibility 9 miles    
Events Thunderstorm    
T = Trace of Precipitation, MM = Missing Value Source: NWS Daily Summary

Daily Weather History Graph

Daily Weather History Graph

Search for Another Location

Airport or City:

Trip Planner

Search our weather history database for the weather conditions in past years. The results will help you decide how hot, cold, wet, or windy it might be!

Date:

Astronomy

May. 28, 2013 Rise Set
Actual Time 6:06 AM CDT 8:49 PM CDT
Civil Twilight 5:35 AM CDT 9:20 PM CDT
Nautical Twilight 4:55 AM CDT 10:00 PM CDT
Astronomical Twilight 4:11 AM CDT 10:45 PM CDT
Moon No Moon Rise 9:56 AM CDT
Length of Visible Light 15h 45m
Length of Day
14h 42m
Waning Gibbous, 82% of the Moon is Illuminated
May 28
Waning Gibbous
May 31
Last Quarter
Jun 8
New
Jun 16
First Quarter
Jun 23
Full

Hourly Weather History & Observations

Time (CDT) Temp. Heat Index Dew Point Humidity Pressure Visibility Wind Dir Wind Speed Gust Speed Precip Events Conditions
12:16 AM 69.8 °F - 66.2 °F 88% 29.64 in 10.0 mi SE 5.8 mph - N/A   Scattered Clouds
12:55 AM 70.0 °F - 66.9 °F 90% 29.57 in 10.0 mi South 9.2 mph - N/A   Clear
1:55 AM 70.0 °F - 66.0 °F 87% 29.58 in 10.0 mi South 9.2 mph - N/A   Clear
2:55 AM 66.9 °F - 64.9 °F 93% 29.60 in 9.0 mi East 3.5 mph - N/A   Clear
3:55 AM 66.9 °F - 64.9 °F 93% 29.59 in 9.0 mi East 3.5 mph - N/A   Clear
4:41 AM 64.4 °F - 62.6 °F 94% 29.65 in 3.0 mi Calm Calm - N/A   Scattered Clouds
4:46 AM 64.4 °F - 62.6 °F 94% 29.66 in 2.0 mi North 3.5 mph - N/A   Mostly Cloudy
4:55 AM 64.0 °F - 63.0 °F 96% 29.62 in 4.0 mi Calm Calm - N/A   Mostly Cloudy
5:34 AM 66.2 °F - 64.4 °F 94% 29.69 in 10.0 mi NE 8.1 mph - N/A   Overcast
5:45 AM 66.2 °F - 64.4 °F 94% 29.69 in 10.0 mi NNE 10.4 mph - N/A   Overcast
5:55 AM 66.0 °F - 64.0 °F 93% 29.65 in 10.0 mi NNE 12.7 mph - N/A   Overcast
6:29 AM 64.4 °F - 62.6 °F 94% 29.70 in 10.0 mi ENE 8.1 mph - N/A   Overcast
6:55 AM 64.9 °F - 63.0 °F 93% 29.65 in 10.0 mi ENE 5.8 mph - N/A   Overcast
7:55 AM 66.0 °F - 63.0 °F 90% 29.64 in 10.0 mi ENE 9.2 mph - N/A   Overcast
8:55 AM 68.0 °F - 64.9 °F 90% 29.66 in 10.0 mi East 5.8 mph - N/A   Overcast
9:55 AM 70.0 °F - 66.9 °F 90% 29.65 in 10.0 mi ESE 5.8 mph - N/A   Overcast
10:32 AM 73.4 °F - 69.8 °F 88% 29.65 in 10.0 mi East 8.1 mph - N/A   Scattered Clouds
10:55 AM 73.9 °F - 69.1 °F 85% 29.60 in 10.0 mi East 11.5 mph 19.6 mph N/A   Scattered Clouds
11:06 AM 73.4 °F - 69.8 °F 88% 29.66 in 10.0 mi SE 8.1 mph - N/A   Mostly Cloudy
11:55 AM 73.9 °F - 68.0 °F 82% 29.62 in 10.0 mi SE 5.8 mph - N/A   Overcast
12:55 PM 75.9 °F - 69.1 °F 79% 29.65 in 10.0 mi West 3.5 mph - N/A   Overcast
1:55 PM 79.0 °F - 70.0 °F 74% 29.62 in 10.0 mi North 5.8 mph - N/A   Mostly Cloudy
2:55 PM 81.0 °F 84.9 °F 71.1 °F 72% 29.62 in 10.0 mi ESE 6.9 mph - N/A   Mostly Cloudy
3:55 PM 82.9 °F 86.5 °F 69.1 °F 63% 29.60 in 10.0 mi SE 10.4 mph - N/A   Mostly Cloudy
4:55 PM 84.0 °F 88.4 °F 70.0 °F 63% 29.57 in 10.0 mi East 8.1 mph - N/A   Scattered Clouds
5:50 PM 80.6 °F 84.6 °F 71.6 °F 74% 29.59 in 10.0 mi ENE 6.9 mph - N/A Thunderstorm Partly Cloudy
5:55 PM 81.0 °F 84.9 °F 71.1 °F 72% 29.55 in 10.0 mi East 5.8 mph - N/A Thunderstorm Partly Cloudy
6:55 PM 73.0 °F - 68.0 °F 84% 29.54 in 10.0 mi East 8.1 mph - N/A   Clear
7:16 PM 75.2 °F - 62.6 °F 65% 29.58 in 10.0 mi South 10.4 mph 16.1 mph N/A Thunderstorm Clear
7:31 PM 75.2 °F - 62.6 °F 65% 29.61 in 10.0 mi SSW 24.2 mph 36.8 mph N/A   Partly Cloudy
7:53 PM 71.6 °F - 57.2 °F 60% 29.61 in 10.0 mi South 32.2 mph 47.2 mph N/A Thunderstorm Scattered Clouds
7:55 PM 72.0 °F - 57.0 °F 59% 29.58 in 10.0 mi South 32.2 mph 47.2 mph N/A Thunderstorm Scattered Clouds
8:08 PM 71.6 °F - 60.8 °F 69% 29.62 in 10.0 mi South 38.0 mph 48.3 mph N/A   Partly Cloudy
8:55 PM 75.9 °F - 48.0 °F 37% 29.54 in 10.0 mi South 15.0 mph 26.5 mph N/A   Clear
9:55 PM 73.0 °F - 64.9 °F 76% 29.57 in 10.0 mi South 25.3 mph 42.6 mph N/A   Clear
10:55 PM 73.0 °F - 64.9 °F 76% 29.56 in 10.0 mi South 28.8 mph 43.7 mph N/A   Clear
11:55 PM 72.0 °F - 64.9 °F 78% 29.62 in 10.0 mi East 9.2 mph 17.3 mph N/A   Clear